• In Belarus
  • List of Countries
  • For 7 days
  • Water Temperature
  • Satellite Maps
  • Weather Map
  • Weather Widgets
  • user-avatar
    Login

    Hourly Weather Krasnyy Put

    Today, 16 October, Tuesday

    Time Temperature Precipitation Wind Pressure Humidity
    00:00 +11°C° 0 mm 1 mps 746 mmHg 83%
    01:00 +11°C° 0 mm 1 mps 746 mmHg 84%
    02:00 +10°C° 0 mm 1 mps 746 mmHg 85%
    03:00 +10°C° 0 mm 1 mps 746 mmHg 85%
    04:00 +9°C° 0 mm 2 mps 746 mmHg 86%
    05:00 +9°C° 0 mm 2 mps 746 mmHg 87%
    06:00 +9°C° 0 mm 2 mps 746 mmHg 84%
    07:00 +10°C° 0 mm 2 mps 746 mmHg 81%
    08:00 +10°C° 0 mm 2 mps 747 mmHg 79%
    09:00 +13°C° 0 mm 2 mps 747 mmHg 72%
    10:00 +14°C° 0 mm 2 mps 747 mmHg 66%
    11:00 +16°C° 0 mm 2 mps 746 mmHg 59%
    12:00 +17°C° 0 mm 2 mps 746 mmHg 57%
    13:00 +17°C° 0 mm 3 mps 746 mmHg 55%
    14:00 +18°C° 0 mm 3 mps 746 mmHg 53%
    15:00 +16°C° 0 mm 2 mps 746 mmHg 58%
    16:00 +15°C° 0 mm 2 mps 745 mmHg 62%
    17:00 +14°C° 0 mm 2 mps 745 mmHg 67%
    18:00 +13°C° 0 mm 2 mps 745 mmHg 68%
    19:00 +13°C° 0 mm 2 mps 745 mmHg 69%
    20:00 +12°C° 0 mm 2 mps 745 mmHg 71%
    21:00 +12°C° 0 mm 2 mps 745 mmHg 72%
    22:00 +10°C° 0 mm 3 mps 745 mmHg 73%
    23:00 +10°C° 0 mm 3 mps 745 mmHg 74%

    Tomorrow, 17 October, Wednesday

    Time Temperature Precipitation Wind Pressure Humidity
    00:00 +10°C° 0 mm 2 mps 745 mmHg 76%
    01:00 +10°C° 0 mm 2 mps 745 mmHg 77%
    02:00 +9°C° 0 mm 2 mps 745 mmHg 79%
    03:00 +9°C° 0 mm 2 mps 745 mmHg 81%
    04:00 +9°C° 0 mm 2 mps 745 mmHg 82%
    05:00 +9°C° 0 mm 2 mps 745 mmHg 84%
    06:00 +9°C° 0 mm 2 mps 745 mmHg 82%
    07:00 +10°C° 0 mm 2 mps 745 mmHg 79%
    08:00 +12°C° 0 mm 2 mps 745 mmHg 77%
    09:00 +13°C° 0 mm 2 mps 745 mmHg 71%
    10:00 +14°C° 0 mm 3 mps 745 mmHg 66%
    11:00 +16°C° 0 mm 3 mps 745 mmHg 60%
    12:00 +17°C° 0 mm 3 mps 745 mmHg 59%
    13:00 +17°C° 0 mm 2 mps 745 mmHg 58%
    14:00 +18°C° 0 mm 2 mps 745 mmHg 56%
    15:00 +17°C° 0 mm 2 mps 745 mmHg 62%
    16:00 +15°C° 0 mm 2 mps 745 mmHg 67%
    17:00 +14°C° 0 mm 1 mps 745 mmHg 72%
    18:00 +14°C° 0 mm 1 mps 745 mmHg 74%
    19:00 +13°C° 0 mm 1 mps 745 mmHg 76%
    20:00 +13°C° 0 mm 1 mps 745 mmHg 78%
    21:00 +12°C° 0 mm 1 mps 745 mmHg 79%
    22:00 +12°C° 0 mm 1 mps 745 mmHg 81%
    23:00 +10°C° 0 mm 0 mps 745 mmHg 82%

    Day after tomorrow, 18 October, Thursday

    Time Temperature Precipitation Wind Pressure Humidity
    00:00 +10°C° 0 mm 0 mps 745 mmHg 83%
    01:00 +10°C° 0 mm 0 mps 745 mmHg 83%
    02:00 +10°C° 0 mm 0 mps 745 mmHg 84%
    03:00 +9°C° 0 mm 0 mps 745 mmHg 84%
    04:00 +9°C° 0 mm 0 mps 745 mmHg 85%
    05:00 +10°C° 0 mm 1 mps 745 mmHg 85%
    06:00 +11°C° 0 mm 1 mps 745 mmHg 83%
    07:00 +12°C° 0 mm 1 mps 745 mmHg 80%
    08:00 +12°C° 0 mm 1 mps 745 mmHg 78%
    09:00 +14°C° 0 mm 1 mps 745 mmHg 72%
    10:00 +15°C° 0 mm 1 mps 745 mmHg 67%
    11:00 +17°C° 0 mm 2 mps 745 mmHg 62%
    12:00 +17°C° 0 mm 2 mps 744 mmHg 60%
    13:00 +18°C° 0 mm 2 mps 744 mmHg 59%
    14:00 +18°C° 0 mm 2 mps 744 mmHg 58%
    15:00 +17°C° 0 mm 2 mps 744 mmHg 63%
    16:00 +16°C° 0 mm 2 mps 743 mmHg 68%
    17:00 +15°C° 0 mm 1 mps 743 mmHg 73%
    18:00 +14°C° 0 mm 2 mps 743 mmHg 74%
    19:00 +14°C° 0 mm 2 mps 743 mmHg 76%
    20:00 +13°C° 0 mm 2 mps 743 mmHg 78%
    21:00 +13°C° 0 mm 2 mps 743 mmHg 79%
    22:00 +13°C° 0 mm 2 mps 743 mmHg 80%
    23:00 +12°C° 0 mm 2 mps 742 mmHg 80%

    19 October, Friday

    Time Temperature Precipitation Wind Pressure Humidity
    00:00 +12°C° 0 mm 2 mps 742 mmHg 81%
    01:00 +12°C° 0 mm 2 mps 742 mmHg 82%
    02:00 +10°C° 0 mm 2 mps 742 mmHg 82%
    03:00 +10°C° 0 mm 2 mps 742 mmHg 82%
    04:00 +10°C° 0 mm 2 mps 742 mmHg 83%
    05:00 +10°C° 0 mm 2 mps 741 mmHg 83%
    06:00 +10°C° 0 mm 2 mps 741 mmHg 81%
    07:00 +12°C° 0 mm 2 mps 741 mmHg 78%
    08:00 +12°C° 0 mm 2 mps 741 mmHg 76%
    09:00 +14°C° 0 mm 2 mps 741 mmHg 70%
    10:00 +15°C° 0 mm 2 mps 741 mmHg 64%
    11:00 +17°C° 0 mm 3 mps 741 mmHg 59%
    12:00 +17°C° 0 mm 3 mps 740 mmHg 58%
    13:00 +18°C° 0 mm 3 mps 740 mmHg 56%
    14:00 +18°C° 0 mm 3 mps 740 mmHg 55%
    15:00 +17°C° 0 mm 3 mps 740 mmHg 59%
    16:00 +16°C° 0 mm 2 mps 739 mmHg 63%
    17:00 +14°C° 0 mm 2 mps 739 mmHg 68%
    18:00 +14°C° 0 mm 2 mps 739 mmHg 69%
    19:00 +14°C° 0 mm 2 mps 739 mmHg 70%
    20:00 +13°C° 0 mm 2 mps 739 mmHg 71%
    21:00 +13°C° 0 mm 1 mps 739 mmHg 73%
    22:00 +12°C° 0 mm 1 mps 739 mmHg 75%
    23:00 +12°C° 0 mm 1 mps 739 mmHg 77%

    20 October, Saturday

    Time Temperature Precipitation Wind Pressure Humidity
    00:00 +11°C° 0 mm 1 mps 738 mmHg 79%
    01:00 +11°C° 0 mm 1 mps 738 mmHg 81%
    02:00 +11°C° 0 mm 1 mps 738 mmHg 84%
    03:00 +10°C° 0 mm 1 mps 738 mmHg 85%
    04:00 +10°C° 0 mm 1 mps 738 mmHg 87%
    05:00 +10°C° 0 mm 1 mps 738 mmHg 89%
    06:00 +10°C° 0 mm 1 mps 738 mmHg 89%
    07:00 +10°C° 0 mm 2 mps 738 mmHg 88%
    08:00 +10°C° 0 mm 2 mps 738 mmHg 88%
    09:00 +12°C° 0 mm 2 mps 738 mmHg 85%
    10:00 +12°C° 0 mm 3 mps 738 mmHg 81%
    11:00 +13°C° 0 mm 3 mps 738 mmHg 77%
    12:00 +13°C° 0 mm 3 mps 738 mmHg 77%
    13:00 +13°C° 0 mm 3 mps 738 mmHg 76%
    14:00 +13°C° 0 mm 3 mps 738 mmHg 75%
    15:00 +13°C° 0 mm 3 mps 738 mmHg 77%
    16:00 +12°C° 0 mm 3 mps 738 mmHg 79%
    17:00 +12°C° 0 mm 3 mps 738 mmHg 81%
    18:00 +11°C° 0 mm 3 mps 738 mmHg 80%
    19:00 +11°C° 0 mm 3 mps 738 mmHg 80%
    20:00 +11°C° 0 mm 3 mps 738 mmHg 79%
    21:00 +10°C° 0 mm 3 mps 738 mmHg 79%
    22:00 +10°C° 0 mm 2 mps 737 mmHg 78%
    23:00 +10°C° 0 mm 2 mps 737 mmHg 77%

    21 October, Sunday

    Time Temperature Precipitation Wind Pressure Humidity
    00:00 +9°C° 0.1 mm 2 mps 737 mmHg 77%
    01:00 +9°C° 0.1 mm 2 mps 737 mmHg 77%
    02:00 +9°C° 0.1 mm 2 mps 737 mmHg 76%
    03:00 +8°C° 0.2 mm 2 mps 736 mmHg 77%
    04:00 +8°C° 0.2 mm 3 mps 736 mmHg 78%
    05:00 +7°C° 0.2 mm 3 mps 736 mmHg 79%
    06:00 +7°C° 0.2 mm 3 mps 736 mmHg 79%
    07:00 +7°C° 0.2 mm 3 mps 736 mmHg 79%
    08:00 +7°C° 0.2 mm 3 mps 736 mmHg 79%
    09:00 +7°C° 0.1 mm 3 mps 736 mmHg 75%
    10:00 +8°C° 0.1 mm 3 mps 737 mmHg 71%
    11:00 +7°C° 0.1 mm 4 mps 737 mmHg 67%
    12:00 +7°C° 0 mm 4 mps 737 mmHg 65%
    13:00 +7°C° 0 mm 4 mps 737 mmHg 63%
    14:00 +8°C° 0 mm 4 mps 737 mmHg 61%
    15:00 +7°C° 0 mm 4 mps 737 mmHg 64%
    16:00 +6°C° 0 mm 4 mps 737 mmHg 67%
    17:00 +6°C° 0 mm 4 mps 737 mmHg 69%
    18:00 +5°C° 0 mm 4 mps 737 mmHg 69%
    19:00 +5°C° 0 mm 4 mps 738 mmHg 69%
    20:00 +5°C° 0 mm 4 mps 738 mmHg 69%
    21:00 +5°C° 0 mm 3 mps 738 mmHg 70%
    22:00 +5°C° 0 mm 3 mps 738 mmHg 72%
    23:00 +5°C° 0 mm 3 mps 738 mmHg 73%
    Show more